Lapse_Rate
6.7 6.5 6.3 6.1 6.1 6.2 6.4 6.2 6.1 6.0 5.9 5.7 5.7 5.6 5.6 5.6 5.5 5.6 5.6 5.7 5.9 6.1 6.2 6.2 6.2 6.4 6.5 6.5 6.4 6.3 6.2 6.2 6.1 6.1 5.9 5.9 5.9 5.9 5.9 5.9 5.9 5.9 6.0
7.0 6.6 6.4 6.2 6.1 6.3 6.3 6.4 6.2 6.2 6.1 5.9 5.8 5.7 5.6 5.5 5.6 5.6 5.6 5.8 6.1 6.2 6.3 6.3 6.3 6.3 6.4 6.4 6.4 6.5 6.3 6.4 6.4 6.4 6.4 6.3 6.2 6.2 6.2 6.1 6.0 6.1 6.2
7.1 6.8 6.5 6.4 6.1 6.2 6.3 6.4 6.4 6.2 6.1 6.3 6.0 5.8 5.7 5.7 5.6 5.8 6.0 6.2 6.2 6.3 6.3 6.3 6.2 6.2 6.3 6.2 6.2 6.4 6.5 6.4 6.4 6.6 6.6 6.6 6.5 6.4 6.3 6.3 6.3 6.3 6.1
7.1 7.1 6.7 6.5 6.3 6.2 6.3 6.4 6.4 6.3 6.3 6.3 6.2 5.7 5.7 6.0 6.0 6.0 6.2 6.3 6.3 6.3 6.4 6.4 6.3 6.2 6.2 6.1 6.2 6.3 6.3 6.3 6.4 6.6 6.7 6.7 6.6 6.5 6.5 6.4 6.3 6.2 6.2
7.1 7.1 6.9 6.7 6.6 6.3 6.3 6.3 6.4 6.4 6.3 6.3 6.4 6.3 6.2 6.1 6.3 6.2 6.3 6.3 6.4 6.5 6.5 6.5 6.4 6.3 6.2 6.1 6.1 6.2 6.2 6.4 6.4 6.4 6.4 6.5 6.4 6.4 6.4 6.3 6.3 6.2 6.1
7.4 7.0 6.9 6.8 6.6 6.5 6.3 6.3 6.3 6.4 6.4 6.4 6.4 6.5 6.4 6.4 6.4 6.4 6.4 6.4 6.4 6.5 6.6 6.6 6.5 6.5 6.4 6.3 6.3 6.3 6.4 6.5 6.5 6.4 6.4 6.4 6.3 6.4 6.5 6.4 6.3 6.3 6.1
7.2 7.2 7.0 6.9 6.7 6.6 6.4 6.3 6.3 6.4 6.5 6.4 6.5 6.6 6.6 6.6 6.6 6.5 6.5 6.5 6.5 6.5 6.6 6.5 6.5 6.4 6.4 6.4 6.4 6.4 6.6 6.7 6.4 6.4 6.5 6.4 6.3 6.3 6.3 6.3 6.2 6.3 6.2
6.9 7.2 6.9 6.9 6.7 6.7 6.6 6.4 6.4 6.5 6.4 6.5 6.6 6.6 6.7 6.7 6.7 6.7 6.6 6.5 6.5 6.6 6.6 6.5 6.5 6.4 6.4 6.3 6.3 6.4 6.5 6.5 6.3 6.5 6.6 6.5 6.4 6.4 6.4 6.2 6.2 6.2 6.1
6.7 7.1 7.2 6.9 6.7 6.7 6.7 6.5 6.4 6.5 6.5 6.5 6.6 6.6 6.7 6.7 6.8 6.9 6.8 6.7 6.6 6.6 6.6 6.5 6.4 6.4 6.4 6.4 6.3 6.5 6.6 6.5 6.4 6.4 6.4 6.4 6.4 6.4 6.4 6.2 6.1 6.1 5.9
6.3 6.7 6.7 6.7 6.7 6.7 6.7 6.6 6.4 6.4 6.5 6.5 6.5 6.6 6.6 6.7 6.7 6.8 6.9 6.9 6.8 6.8 6.8 6.6 6.5 6.4 6.4 6.3 6.4 6.6 6.8 6.4 6.4 6.4 6.3 6.2 6.4 6.3 6.1 6.2 6.1 6.0 5.9
6.1 5.8 6.6 6.5 6.5 6.5 6.7 6.6 6.5 6.4 6.4 6.6 6.6 6.5 6.6 6.5 6.6 6.7 6.8 6.8 6.8 6.8 6.8 6.7 6.6 6.6 6.5 6.4 6.5 6.7 6.8 6.3 6.4 6.4 6.3 6.2 6.2 6.3 6.2 6.0 6.0 6.0 6.1
6.0 6.1 5.8 6.0 6.4 6.5 6.4 6.5 6.5 6.5 6.4 6.4 6.5 6.5 6.5 6.6 6.6 6.6 6.6 6.7 6.8 6.8 6.8 6.7 6.7 6.6 6.6 6.5 6.5 6.9 6.8 6.4 6.4 6.5 6.3 6.3 6.3 6.3 6.2 6.3 6.2 6.2 6.2
6.2 6.1 6.1 5.6 6.1 6.2 6.5 6.4 6.4 6.5 6.5 6.4 6.4 6.4 6.5 6.6 6.7 6.6 6.5 6.6 6.6 6.8 6.8 6.7 6.7 6.6 6.6 6.6 6.6 6.9 6.8 6.5 6.5 6.5 6.4 6.4 6.3 6.3 6.4 6.4 6.4 6.4 6.4
5.7 6.0 5.8 5.9 6.1 6.3 6.3 6.2 6.4 6.5 6.5 6.4 6.3 6.1 6.3 6.5 6.6 6.5 6.5 6.4 6.7 6.5 6.6 6.6 6.6 6.7 6.6 6.6 6.6 6.9 6.8 6.5 6.5 6.6 6.5 6.4 6.4 6.4 6.4 6.4 6.3 6.3 6.3
5.5 5.5 5.6 5.6 5.8 6.1 5.8 6.2 6.4 6.2 6.3 6.5 6.3 6.0 6.3 6.4 6.4 6.4 6.4 6.4 6.4 6.3 6.4 6.5 6.5 6.4 6.5 6.5 6.5 6.9 6.8 6.5 6.5 6.5 6.5 6.4 6.3 6.3 6.4 6.3 6.3 6.3 6.2
5.8 5.5 5.6 5.5 5.6 5.7 5.7 5.9 6.3 6.1 6.1 6.0 6.1 5.8 5.9 6.3 6.1 6.2 6.2 6.4 6.3 6.2 6.2 6.2 6.2 6.2 6.3 6.2 6.4 6.7 6.7 6.4 6.4 6.3 6.3 6.4 6.4 6.2 6.2 6.2 6.2 6.1 6.1
5.7 6.0 5.6 5.6 5.4 5.7 5.7 5.9 6.0 5.9 6.4 6.2 6.1 6.1 5.9 6.0 5.9 6.1 6.2 6.2 5.9 6.0 6.1 6.0 6.0 6.2 6.2 6.1 6.3 6.6 6.7 6.3 6.2 6.1 6.1 6.2 6.2 6.1 6.1 6.1 6.1 6.0 6.0
5.7 5.9 6.1 5.7 5.7 5.4 5.7 5.8 5.7 5.6 5.9 6.0 6.4 6.1 5.9 5.7 5.7 5.8 6.1 6.0 6.0 5.8 5.9 6.0 6.1 6.1 6.1 5.9 6.0 6.3 6.5 6.3 6.1 6.1 6.0 6.1 6.0 6.0 6.0 6.0 6.0 6.0 6.1
5.6 5.6 5.9 6.1 5.9 5.7 5.6 5.7 5.8 5.5 5.8 5.8 6.1 6.2 6.0 5.9 5.8 5.5 5.8 5.9 5.9 5.9 6.1 6.0 5.9 5.8 5.9 5.9 5.8 6.1 6.3 6.4 6.1 6.1 6.0 5.9 5.9 5.9 5.8 5.8 5.8 5.9 5.8
5.4 5.2 5.4 6.0 5.9 6.0 5.8 5.6 5.6 5.5 5.5 5.1 4.6 5.4 5.7 6.1 5.5 5.5 5.6 5.7 5.8 5.8 5.9 5.8 5.7 5.8 5.7 5.8 5.8 5.6 6.0 6.1 5.9 5.7 5.8 5.8 5.7 5.6 5.6 5.7 5.8 5.8 5.7
5.1 5.3 5.0 5.5 6.2 6.0 6.1 5.9 5.6 5.6 5.9 5.5 5.5 6.1 5.7 6.0 6.1 5.7 5.5 5.6 5.6 5.6 5.6 5.5 5.5 5.7 5.7 5.8 5.8 5.6 5.4 5.5 5.8 5.9 5.7 5.5 5.4 5.5 5.6 5.6 5.8 5.8 5.7
5.3 5.8 5.9 5.9 6.3 6.6 6.5 6.3 5.9 5.7 5.8 5.8 5.5 5.0 5.2 5.3 4.8 4.9 5.8 5.6 5.4 5.5 5.5 5.4 5.5 5.5 5.6 5.6 5.6 5.4 5.3 5.4 5.5 5.5 5.5 5.6 5.5 5.6 5.8 5.8 5.8 5.7 5.8
7.0 7.3 7.3 7.2 6.9 6.8 7.2 6.8 6.5 6.2 6.1 6.0 5.6 5.5 5.6 5.2 5.5 4.8 4.9 5.4 5.3 5.1 5.3 5.4 5.3 5.4 5.5 5.4 5.5 5.5 5.6 5.7 5.5 5.4 5.3 5.3 5.4 5.5 5.7 5.7 5.7 5.7 5.6
7.8 8.0 8.0 8.0 7.8 7.6 7.6 7.4 7.2 6.8 6.6 6.1 6.2 5.8 6.1 5.5 5.5 5.4 4.9 5.0 5.5 5.3 5.2 5.3 5.3 5.2 5.2 5.3 5.3 5.5 5.5 5.5 5.5 5.3 5.3 5.1 5.3 5.3 5.4 5.5 5.6 5.6 5.4
7.7 8.0 8.0 7.9 7.8 7.6 7.6 7.4 7.2 7.0 6.8 6.5 6.4 6.3 5.9 5.5 5.2 5.6 5.2 5.0 5.6 4.8 4.6 5.2 5.6 5.4 5.4 5.5 5.5 5.3 5.4 5.5 5.5 5.3 5.3 5.1 5.1 5.3 5.5 5.5 5.3 5.2 5.4
7.5 7.7 7.9 7.8 7.8 7.8 7.8 7.5 7.2 7.0 7.1 6.7 6.7 6.2 6.0 6.0 5.3 5.3 4.8 5.1 4.7 4.5 4.5 4.8 5.2 5.4 5.7 5.4 5.3 5.3 5.3 5.3 5.3 5.2 5.2 5.5 5.1 5.1 5.3 5.4 5.2 4.9 5.3
Wind_Speed
6 12 19 18 17 16 18 17 17 16 15 17 18 17 18 20 19 19 19 20 18 15 15 14 13 13 13 13 15 17 17 17 19 18 15 16 16 21 20 22 19 18 22
14 17 21 19 17 16 16 18 17 16 16 16 18 20 20 19 19 19 17 17 16 14 14 13 12 13 14 14 14 14 14 18 17 17 18 17 20 21 21 21 21 21 23
14 19 20 19 17 15 15 18 16 16 17 17 18 18 21 19 16 15 15 15 15 14 14 13 13 13 14 14 13 14 13 14 14 14 17 16 17 21 20 20 21 21 21
11 17 18 19 17 16 21 22 19 17 18 20 19 18 17 19 16 13 14 14 14 14 13 14 14 14 14 14 14 14 13 11 14 18 14 13 17 21 19 19 21 21 20
13 18 16 18 20 17 21 20 19 15 12 13 13 14 15 16 15 13 13 13 14 13 14 14 14 14 15 14 13 14 14 19 18 16 15 15 15 17 17 16 18 18 18
14 18 21 18 19 17 20 18 14 15 13 13 14 14 15 15 15 14 14 13 14 13 14 15 16 17 17 15 14 13 19 19 18 16 15 17 15 14 15 18 18 17 15
3 16 22 20 19 19 18 23 17 15 14 14 15 15 16 16 15 16 14 14 14 16 15 17 17 17 18 15 14 13 13 19 18 14 14 15 14 14 16 17 17 17 20
2 14 21 25 19 20 21 21 19 16 15 14 15 16 17 15 15 15 16 15 15 16 18 18 16 17 17 12 10 10 12 19 19 18 15 15 14 16 21 20 21 22 22
9 4 14 20 25 20 20 22 19 16 16 15 14 15 15 15 15 16 16 17 16 17 18 18 18 17 13 10 8 11 21 23 22 15 10 13 16 19 22 22 22 20 20
4 5 1 10 19 22 20 25 21 18 16 15 15 14 16 14 15 16 15 16 18 18 18 18 19 15 11 9 10 21 26 25 22 14 14 14 19 21 22 21 20 18 17
3 2 4 4 8 13 15 22 25 24 20 15 15 19 17 14 15 15 14 15 16 16 19 18 18 14 10 9 10 18 18 18 18 15 14 20 21 22 21 21 18 16 16
6 2 2 5 6 7 14 18 17 20 17 14 15 15 16 17 16 13 15 16 16 16 19 18 16 12 11 9 8 20 18 18 17 17 17 16 17 18 19 17 16 16 16
3 3 2 4 8 7 7 14 13 14 15 16 18 14 19 15 14 16 16 16 16 16 15 17 15 11 11 9 9 19 17 17 17 17 15 14 16 16 17 16 16 16 16
5 4 3 3 7 8 6 7 11 9 15 13 18 19 14 9 11 11 10 14 11 14 13 15 12 9 10 7 17 16 16 15 17 18 16 18 17 18 17 16 16 15 15
5 6 5 4 5 8 5 8 9 7 11 15 18 21 16 12 6 11 12 12 13 14 14 10 9 7 7 8 16 17 15 17 20 15 14 19 17 15 16 16 15 14 14
7 7 6 7 7 7 7 10 8 10 15 15 16 18 21 19 14 12 9 9 10 16 16 14 9 7 6 11 12 16 15 16 18 17 15 20 15 15 16 15 13 13 13
6 7 5 7 6 7 10 6 3 7 11 9 16 19 24 22 19 14 9 6 12 16 15 11 8 11 5 9 9 13 15 16 17 18 19 21 18 17 15 14 13 13 13
5 6 7 5 7 7 6 7 4 5 4 2 13 16 23 19 19 14 7 6 15 15 14 6 5 4 5 5 5 7 10 14 16 18 18 19 18 16 14 14 13 13 12
6 5 7 6 8 8 6 4 5 7 4 10 9 1 17 18 17 13 9 9 15 10 6 6 3 5 5 5 6 6 5 6 11 13 15 18 16 15 15 13 13 13 12
8 8 5 6 6 8 6 5 5 5 6 9 10 10 3 13 16 11 8 9 12 6 5 6 6 3 4 5 8 6 5 6 11 11 11 14 15 14 13 12 12 12 12
7 8 8 5 7 6 6 4 4 4 5 6 6 13 13 6 14 12 6 6 8 6 6 8 4 9 4 8 5 6 4 4 6 5 13 12 12 13 12 12 10 9 9
6 8 8 8 7 6 7 4 4 5 4 8 7 10 13 15 11 11 8 5 4 5 6 6 6 3 3 2 4 4 3 3 3 2 5 6 8 12 12 12 12 12 11
7 8 8 9 8 7 11 9 8 6 5 5 8 8 4 9 10 10 10 6 5 5 7 6 7 10 6 1 7 4 3 4 3 0 2 3 5 4 10 12 13 14 12
9 7 9 10 6 9 14 12 17 10 12 8 9 8 8 16 15 20 15 11 6 4 6 7 8 6 6 9 2 2 2 4 3 2 1 2 4 5 5 8 12 13 12
9 10 11 8 9 12 13 15 12 12 8 8 8 11 10 7 11 8 13 13 8 4 7 9 9 10 4 5 3 2 2 3 3 3 3 2 0 2 5 9 13 12 11
10 12 8 4 8 12 12 14 16 16 13 11 11 11 9 8 8 11 14 10 12 7 6 6 4 8 5 5 3 3 3 3 3 3 3 2 3 1 3 8 10 9 10
Wind_Direction
173 162 159 163 162 153 152 149 142 140 138 133 130 123 118 115 112 112 115 114 111 112 110 108 112 115 112 109 102 97 99 103 99 99 91 84 97 88 87 85 81 83 85
152 161 161 167 169 160 151 147 144 145 147 139 134 129 123 117 117 114 111 111 113 117 115 116 120 122 120 112 104 102 104 103 104 97 92 90 91 93 89 90 86 86 82
151 156 159 171 167 156 138 129 132 140 139 138 135 136 132 122 112 113 119 119 119 118 119 121 125 126 126 120 116 112 107 105 105 105 100 96 99 96 92 89 87 84 81
162 157 157 169 170 169 148 133 130 130 134 132 131 126 122 110 114 127 127 124 121 120 123 126 129 130 130 128 126 121 115 108 110 100 86 92 100 95 88 91 89 82 79
160 158 156 171 171 174 151 132 132 133 132 133 131 129 122 122 130 134 131 126 121 123 128 128 131 133 135 132 129 127 120 108 101 94 92 83 74 85 88 87 88 87 84
161 164 160 171 167 162 142 143 141 145 145 142 138 142 136 143 141 138 129 130 128 132 129 135 132 137 133 128 132 137 131 114 96 88 86 86 89 94 99 98 92 86 83
134 171 161 169 167 156 150 141 147 149 159 155 149 148 149 148 146 134 137 138 138 137 137 136 137 130 121 134 117 107 115 103 104 101 94 101 99 107 108 97 94 91 88
320 175 164 163 166 160 147 142 147 152 162 161 159 156 153 152 150 149 145 145 143 141 145 138 135 131 123 126 106 88 113 117 101 93 98 102 112 108 111 101 96 94 84
22 146 168 163 160 160 152 142 150 162 164 162 169 166 154 151 150 151 150 147 147 147 151 140 134 123 128 126 108 88 105 104 99 101 93 117 117 109 101 97 90 87 85
39 31 17 150 163 161 159 152 157 171 165 165 167 157 148 151 152 152 153 153 151 152 145 134 130 130 136 130 104 81 104 101 97 91 84 105 110 109 102 94 86 87 89
25 41 75 178 163 165 163 161 162 159 163 173 151 143 135 152 148 148 159 157 150 151 142 135 137 140 142 129 111 85 103 103 96 91 84 94 99 97 96 92 90 88 88
321 36 168 186 180 182 167 164 162 160 158 145 141 148 141 151 153 156 156 154 149 151 141 143 143 150 143 136 112 94 102 100 94 89 89 91 101 97 93 100 98 91 90
271 315 113 200 177 181 182 166 164 167 148 153 148 152 159 159 152 148 135 139 151 151 143 138 152 152 147 137 93 115 109 103 101 100 100 112 103 102 106 101 99 93 90
282 260 275 202 189 180 196 179 174 174 163 161 161 165 159 143 148 144 138 145 147 146 137 154 164 157 153 141 113 115 111 104 96 94 103 104 107 110 110 106 98 94 90
253 270 239 217 200 175 221 184 184 191 176 168 162 170 158 154 156 153 149 153 149 147 152 156 171 194 156 140 121 117 110 105 100 96 102 105 106 114 111 104 97 92 90
242 249 243 220 201 186 204 197 192 184 181 170 173 175 162 160 158 160 155 164 163 164 173 167 180 160 141 126 103 118 120 112 104 96 91 86 88 98 102 97 93 90 86
262 256 229 221 203 192 190 212 208 199 200 173 180 175 167 161 162 162 166 167 173 178 172 170 147 119 110 99 107 119 117 113 108 104 102 100 88 89 101 102 95 86 79
301 267 267 208 187 194 188 181 227 138 65 339 190 165 164 160 161 155 163 165 170 162 156 148 123 112 106 101 100 116 120 117 118 117 114 112 104 97 100 97 89 82 78
313 303 286 251 195 186 192 160 159 127 104 103 37 48 162 154 149 152 153 153 154 142 139 137 120 120 113 102 96 95 102 113 120 124 121 126 127 123 112 100 90 83 81
331 305 279 272 224 177 168 111 87 95 119 109 125 93 126 144 133 134 133 137 136 131 132 128 128 107 121 116 101 87 90 98 110 116 126 138 136 132 124 111 103 89 82
345 326 302 270 250 168 162 130 119 127 132 131 113 124 117 107 126 129 125 131 135 135 144 138 119 126 87 121 101 83 46 75 113 125 133 133 134 134 132 127 118 95 91
306 297 298 276 232 180 156 120 121 139 125 140 122 127 150 153 159 144 137 144 141 132 136 144 133 115 103 147 127 96 100 24 19 146 141 141 145 138 128 126 116 102 92
305 293 292 288 241 161 126 120 107 100 115 126 135 132 168 128 118 138 137 141 153 143 160 158 147 140 150 50 142 136 133 185 133 60 200 160 151 141 146 134 121 111 102
309 303 290 280 201 148 138 148 149 153 159 167 162 153 152 152 159 168 153 172 150 133 154 164 152 148 141 155 92 86 85 139 159 155 189 187 163 156 156 145 131 122 113
327 307 291 271 173 174 163 159 156 158 165 161 159 159 164 159 150 134 148 156 145 156 168 160 155 152 143 149 127 141 95 72 104 135 165 186 91 157 160 144 139 129 113
330 325 304 227 179 178 166 164 160 161 157 156 163 170 176 174 166 166 171 156 143 154 160 154 136 149 145 116 123 141 155 155 170 146 119 125 157 215 114 130 134 126 101